This demonstration page uses our WeatherBlox Daily Observations layout. Learn more.

Hourly Observations for December 9, 2019

Temp ( °F °C ) Dew Point ( °F °C ) Humidity (%) Winds ( mph kmh ) Pressure ( in mb ) Visibility ( mi km ) Precip ( " mm )
12:15 am 00:15 Cloudy 36 2.3 33 0.6 89 89 Calm 29.64 1004 10 16.0934 0 0
12:35 am 00:35 Cloudy 38 3.1 33 0.7 84 84 Calm 29.63 1004 10 16.0934 0 0
12:55 am 00:55 Cloudy 38 3.1 34 1 86 86 WNW 3 6 29.63 1004 10 16.0934 0 0
1:15 am 01:15 Cloudy 38 3.3 34 0.9 84 84 WNW 3 6 29.64 1004 10 16.0934 0 0
1:35 am 01:35 Cloudy 40 4.4 35 1.7 83 83 NW 10 17 29.67 1005 10 16.0934 0 0
1:55 am 01:55 Mostly Cloudy 40 4.7 35 1.5 80 80 N 31 50 29.71 1006 10 16.0934 0 0
2:15 am 02:15 Mostly Cloudy 34 1.3 32 -0.1 91 91 N 33 54 29.77 1008 10 16.0934 0 0
2:35 am 02:35 Cloudy 33 0.8 30 -0.9 89 89 N 25 41 29.79 1009 10 16.0934 0 0
2:55 am 02:55 Partly Cloudy 31 -0.3 26 -3.5 79 79 N 31 50 29.82 1010 10 16.0934 0 0
3:15 am 03:15 Partly Cloudy 30 -1 25 -4 80 80 N 20 31 29.83 1010 10 16.0934 0 0
3:35 am 03:35 Cloudy 28 -2.1 22 -5.5 78 78 N 24 39 29.86 1011 10 16.0934 0 0
3:55 am 03:55 Cloudy 27 -2.8 21 -6.1 78 78 N 28 44 29.89 1012 10 16.0934 0 0
4:15 am 04:15 Cloudy 26 -3.2 20 -6.5 78 78 N 23 37 29.9 1013 10 16.0934 0 0
4:35 am 04:35 Windy with Snow Likely 25 -4.1 21 -6 87 87 N 23 37 29.91 1013 3 4.82802 0 0
4:55 am 04:55 Windy with Snow Likely 24 -4.5 21 -6.1 89 89 NNW 26 43 29.95 1014 5 8.0467 0 0
5:15 am 05:15 Cloudy 23 -5.2 19 -7.3 85 85 N 18 30 29.98 1015 7 11.26538 0 0
5:35 am 05:35 Mostly Cloudy 23 -5.1 19 -7.1 86 86 N 22 35 29.98 1015 10 16.0934 0 0
5:55 am 05:55 Partly Cloudy 22 -5.6 17 -8.5 80 80 NNW 23 37 30 1016 10 16.0934 0 0
6:15 am 06:15 Clear 21 -6.2 15 -9.5 78 78 N 20 31 30.01 1016 10 16.0934 0 0
6:35 am 06:35 Clear 20 -6.6 14 -9.8 78 78 NNW 21 33 30.03 1017 10 16.0934 0 0
6:55 am 06:55 Clear 19 -7.3 12 -11 75 75 NNW 24 39 30.06 1018 10 16.0934 0 0
7:15 am 07:15 Clear 17 -8.2 11 -11.6 77 77 NNW 20 31 30.09 1019 10 16.0934 0 0
7:35 am 07:35 Clear 17 -8.5 11 -11.7 78 78 N 21 33 30.09 1019 10 16.0934 0 0
7:55 am 07:55 Sunny 17 -8.6 11 -11.9 77 77 NNW 20 31 30.1 1019 10 16.0934 0 0
8:15 am 08:15 Sunny 17 -8.6 11 -11.7 79 79 N 21 33 30.11 1020 10 16.0934 0 0
8:35 am 08:35 Sunny 17 -8.5 11 -11.9 77 77 NNW 22 35 30.12 1020 10 16.0934 0 0
8:55 am 08:55 Sunny 17 -8.2 11 -11.8 76 76 NNW 22 35 30.13 1020 10 16.0934 0 0
9:15 am 09:15 Sunny 18 -8 11 -11.7 75 75 N 23 37 30.14 1021 10 16.0934 0 0
9:35 am 09:35 Sunny 18 -8 10 -12.2 72 72 N 28 44 30.15 1021 10 16.0934 0 0
9:55 am 09:55 Sunny 18 -7.6 10 -12.1 70 70 N 25 41 30.16 1021 10 16.0934 0 0
10:15 am 10:15 Sunny 19 -7.1 11 -11.7 70 70 NNW 24 39 30.16 1021 10 16.0934 0 0
10:35 am 10:35 Sunny 19 -7 11 -11.8 69 69 NNW 21 33 30.17 1022 10 16.0934 0 0
10:55 am 10:55 Sunny 20 -6.8 11 -11.9 67 67 NNW 21 33 30.17 1022 10 16.0934 0 0
11:15 am 11:15 Sunny 21 -6.1 12 -11.1 68 68 N 18 30 30.16 1021 10 16.0934 0 0
11:35 am 11:35 Sunny 22 -5.7 13 -10.7 68 68 N 14 22 30.15 1021 10 16.0934 0 0
11:55 am 11:55 Sunny 23 -5.2 13 -10.4 67 67 NNW 15 24 30.15 1021 10 16.0934 0 0
12:15 pm 12:15 Sunny 23 -4.8 13 -10.5 65 65 NW 16 26 30.15 1021 10 16.0934 0 0
12:35 pm 12:35 Sunny 24 -4.2 14 -10.1 64 64 NW 15 24 30.14 1021 10 16.0934 0 0
12:55 pm 12:55 Sunny 25 -4 14 -10.2 62 62 NW 17 28 30.13 1020 10 16.0934 0 0
1:15 pm 13:15 Sunny 26 -3.2 15 -9.5 62 62 NW 17 28 30.13 1020 10 16.0934 0 0
1:35 pm 13:35 Sunny 27 -2.9 15 -9.4 61 61 NW 16 26 30.12 1020 10 16.0934 0 0
1:55 pm 13:55 Sunny 27 -2.8 15 -9.7 59 59 NW 16 26 30.11 1020 10 16.0934 0 0
2:15 pm 14:15 Sunny 28 -2.5 15 -9.7 58 58 NW 20 31 30.11 1020 10 16.0934 0 0
2:35 pm 14:35 Sunny 28 -2.2 14 -10 56 56 NW 21 33 30.11 1020 10 16.0934 0 0
2:55 pm 14:55 Sunny 28 -2 14 -9.9 55 55 NW 17 28 30.11 1020 10 16.0934 0 0
3:15 pm 15:15 Sunny 28 -2 13 -10.3 53 53 NW 15 24 30.1 1019 10 16.0934 0 0
3:35 pm 15:35 Sunny 29 -1.7 14 -10.2 53 53 NW 13 20 30.11 1020 10 16.0934 0 0
3:55 pm 15:55 Sunny 29 -1.6 13 -10.5 51 51 NW 14 22 30.11 1020 10 16.0934 0 0
4:15 pm 16:15 Sunny 29 -1.5 13 -10.4 51 51 NW 10 17 30.11 1020 10 16.0934 0 0
4:35 pm 16:35 Sunny 29 -1.7 14 -10.1 53 53 NW 9 15 30.12 1020 10 16.0934 0 0
4:55 pm 16:55 Sunny 28 -2.4 15 -9.6 58 58 WNW 5 7 30.13 1020 10 16.0934 0 0
5:15 pm 17:15 Clear 27 -3 14 -9.8 60 60 WNW 5 7 30.13 1020 10 16.0934 0 0
5:35 pm 17:35 Clear 25 -4.1 14 -9.8 65 65 W 3 6 30.15 1021 10 16.0934 0 0
5:55 pm 17:55 Clear 24 -4.2 14 -10 64 64 W 6 9 30.16 1021 10 16.0934 0 0
6:15 pm 18:15 Clear 24 -4.6 14 -10 66 66 W 5 7 30.16 1021 10 16.0934 0 0
6:35 pm 18:35 Clear 23 -4.9 14 -10.1 67 67 SW 3 6 30.17 1022 10 16.0934 0 0
6:55 pm 18:55 Clear 23 -5 15 -9.5 71 71 SW 5 7 30.17 1022 10 16.0934 0 0
7:15 pm 19:15 Clear 23 -4.9 14 -9.8 69 69 SW 6 9 30.17 1022 10 16.0934 0 0
7:35 pm 19:35 Clear 24 -4.2 14 -9.8 65 65 WSW 7 11 30.16 1021 10 16.0934 0 0
7:55 pm 19:55 Clear 26 -3.5 15 -9.7 63 63 WSW 7 11 30.15 1021 10 16.0934 0 0
8:15 pm 20:15 Clear 26 -3.5 15 -9.7 63 63 WSW 8 13 30.15 1021 10 16.0934 0 0
8:35 pm 20:35 Clear 26 -3.2 15 -9.7 61 61 WSW 8 13 30.16 1021 10 16.0934 0 0
8:55 pm 20:55 Clear 26 -3.3 14 -9.8 61 61 WSW 7 11 30.16 1021 10 16.0934 0 0
9:15 pm 21:15 Clear 26 -3.5 15 -9.7 63 63 SW 8 13 30.16 1021 10 16.0934 0 0
9:35 pm 21:35 Clear 24 -4.2 15 -9.5 67 67 WSW 7 11 30.18 1022 10 16.0934 0 0
9:55 pm 21:55 Clear 25 -4 15 -9.2 67 67 WSW 7 11 30.17 1022 10 16.0934 0 0
10:15 pm 22:15 Clear 26 -3.2 16 -8.9 65 65 WSW 8 13 30.17 1022 10 16.0934 0 0
10:35 pm 22:35 Clear 26 -3.2 17 -8.5 67 67 W 8 13 30.17 1022 10 16.0934 0 0
10:55 pm 22:55 Clear 25 -4 16 -8.7 70 70 W 8 13 30.17 1022 10 16.0934 0 0
11:15 pm 23:15 Clear 25 -4 17 -8.4 72 72 W 8 13 30.17 1022 10 16.0934 0 0
11:35 pm 23:35 Clear 24 -4.2 17 -8.2 74 74 W 8 13 30.18 1022 10 16.0934 0 0
11:55 pm 23:55 Clear 24 -4.6 17 -8.1 77 77 W 8 13 30.18 1022 10 16.0934 0 0

Powered by AerisWeather